• In Hungary
  • List of Countries
  • For 7 days
  • Water Temperature
  • Satellite Maps
  • Weather Map
  • News
  • Weather Widgets
  • user-avatar
    Login

    Hourly Weather Bhopal

    Today, 22 August, Tuesday

    Time Temperature Precipitation Wind Pressure Humidity
    00:00 +25°C° 0 mm 2 mps 709 mmHg 87%
    01:00 +25°C° 0 mm 2 mps 708 mmHg 88%
    02:00 +25°C° 0 mm 2 mps 708 mmHg 89%
    03:00 +25°C° 0 mm 2 mps 708 mmHg 89%
    04:00 +25°C° 0 mm 2 mps 709 mmHg 90%
    05:00 +24°C° 0 mm 2 mps 709 mmHg 91%
    06:00 +25°C° 0 mm 2 mps 709 mmHg 88%
    07:00 +26°C° 0 mm 2 mps 710 mmHg 84%
    08:00 +27°C° 0 mm 3 mps 710 mmHg 81%
    09:00 +28°C° 0 mm 2 mps 710 mmHg 78%
    10:00 +29°C° 0 mm 2 mps 710 mmHg 74%
    11:00 +30°C° 0 mm 2 mps 710 mmHg 70%
    12:00 +31°C° 0.1 mm 2 mps 710 mmHg 68%
    13:00 +32°C° 0.1 mm 2 mps 709 mmHg 65%
    14:00 +32°C° 0.1 mm 1 mps 709 mmHg 62%
    15:00 +32°C° 1.1 mm 2 mps 708 mmHg 66%
    16:00 +31°C° 1.1 mm 2 mps 708 mmHg 69%
    17:00 +31°C° 1.1 mm 2 mps 708 mmHg 72%
    18:00 +30°C° 0.4 mm 2 mps 708 mmHg 77%
    19:00 +29°C° 0.4 mm 2 mps 709 mmHg 81%
    20:00 +28°C° 0.4 mm 2 mps 709 mmHg 85%
    21:00 +28°C° 0.3 mm 2 mps 709 mmHg 86%
    22:00 +27°C° 0.3 mm 2 mps 710 mmHg 88%
    23:00 +27°C° 0.3 mm 2 mps 710 mmHg 89%

    Tomorrow, 23 August, Wednesday

    Time Temperature Precipitation Wind Pressure Humidity
    00:00 +27°C° 0 mm 2 mps 710 mmHg 90%
    01:00 +26°C° 0 mm 2 mps 710 mmHg 92%
    02:00 +26°C° 0 mm 2 mps 709 mmHg 93%
    03:00 +26°C° 0 mm 2 mps 710 mmHg 93%
    04:00 +26°C° 0 mm 3 mps 710 mmHg 94%
    05:00 +25°C° 0 mm 3 mps 710 mmHg 94%
    06:00 +26°C° 0 mm 3 mps 711 mmHg 92%
    07:00 +26°C° 0 mm 3 mps 711 mmHg 90%
    08:00 +27°C° 0 mm 3 mps 712 mmHg 88%
    09:00 +28°C° 0.1 mm 3 mps 712 mmHg 83%
    10:00 +29°C° 0.1 mm 3 mps 712 mmHg 79%
    11:00 +31°C° 0.1 mm 3 mps 712 mmHg 74%
    12:00 +31°C° 1.1 mm 3 mps 711 mmHg 72%
    13:00 +32°C° 1.1 mm 2 mps 711 mmHg 70%
    14:00 +32°C° 1.1 mm 2 mps 710 mmHg 68%
    15:00 +32°C° 1.9 mm 2 mps 710 mmHg 71%
    16:00 +31°C° 1.9 mm 2 mps 710 mmHg 74%
    17:00 +31°C° 1.9 mm 3 mps 710 mmHg 77%
    18:00 +30°C° 1.9 mm 3 mps 710 mmHg 80%
    19:00 +29°C° 1.9 mm 3 mps 710 mmHg 84%
    20:00 +28°C° 1.9 mm 3 mps 711 mmHg 88%
    21:00 +27°C° 0.5 mm 3 mps 711 mmHg 88%
    22:00 +27°C° 0.5 mm 3 mps 711 mmHg 89%
    23:00 +27°C° 0.5 mm 3 mps 711 mmHg 90%

    Day after tomorrow, 24 August, Thursday

    Time Temperature Precipitation Wind Pressure Humidity
    00:00 +27°C° 0 mm 3 mps 711 mmHg 91%
    01:00 +26°C° 0 mm 3 mps 710 mmHg 92%
    02:00 +26°C° 0 mm 3 mps 710 mmHg 93%
    03:00 +26°C° 0 mm 3 mps 710 mmHg 94%
    04:00 +26°C° 0 mm 3 mps 710 mmHg 94%
    05:00 +26°C° 0 mm 3 mps 710 mmHg 95%
    06:00 +26°C° 0.1 mm 3 mps 711 mmHg 92%
    07:00 +27°C° 0.1 mm 3 mps 711 mmHg 89%
    08:00 +28°C° 0.1 mm 4 mps 712 mmHg 85%
    09:00 +29°C° 0.3 mm 4 mps 712 mmHg 81%
    10:00 +32°C° 0.3 mm 4 mps 712 mmHg 76%
    11:00 +33°C° 0.3 mm 4 mps 712 mmHg 71%
    12:00 +33°C° 0.9 mm 4 mps 711 mmHg 70%
    13:00 +34°C° 0.9 mm 4 mps 710 mmHg 68%
    14:00 +34°C° 0.9 mm 4 mps 709 mmHg 67%
    15:00 +33°C° 1.6 mm 4 mps 709 mmHg 70%
    16:00 +33°C° 1.6 mm 4 mps 709 mmHg 73%
    17:00 +32°C° 1.6 mm 4 mps 709 mmHg 77%
    18:00 +30°C° 2 mm 3 mps 709 mmHg 80%
    19:00 +29°C° 2 mm 3 mps 709 mmHg 83%
    20:00 +28°C° 2 mm 2 mps 710 mmHg 86%
    21:00 +28°C° 0.4 mm 2 mps 710 mmHg 87%
    22:00 +28°C° 0.4 mm 2 mps 710 mmHg 88%
    23:00 +27°C° 0.4 mm 2 mps 710 mmHg 89%

    25 August, Friday

    Time Temperature Precipitation Wind Pressure Humidity
    00:00 +27°C° 0.5 mm 3 mps 709 mmHg 90%
    01:00 +27°C° 0.5 mm 3 mps 709 mmHg 90%
    02:00 +27°C° 0.5 mm 3 mps 709 mmHg 90%
    03:00 +27°C° 0.7 mm 3 mps 709 mmHg 90%
    04:00 +26°C° 0.7 mm 3 mps 709 mmHg 90%
    05:00 +26°C° 0.7 mm 2 mps 709 mmHg 90%
    06:00 +27°C° 0.2 mm 3 mps 709 mmHg 89%
    07:00 +27°C° 0.2 mm 3 mps 710 mmHg 87%
    08:00 +28°C° 0.2 mm 4 mps 710 mmHg 86%
    09:00 +29°C° 1.4 mm 4 mps 710 mmHg 82%
    10:00 +30°C° 1.4 mm 4 mps 710 mmHg 78%
    11:00 +32°C° 1.4 mm 4 mps 710 mmHg 74%
    12:00 +32°C° 1 mm 4 mps 709 mmHg 74%
    13:00 +31°C° 1 mm 3 mps 709 mmHg 74%
    14:00 +31°C° 1 mm 3 mps 708 mmHg 74%
    15:00 +30°C° 0.3 mm 3 mps 708 mmHg 77%
    16:00 +30°C° 0.3 mm 3 mps 708 mmHg 80%
    17:00 +29°C° 0.3 mm 3 mps 708 mmHg 84%
    18:00 +29°C° 0.1 mm 2 mps 708 mmHg 85%
    19:00 +28°C° 0.1 mm 2 mps 708 mmHg 86%
    20:00 +28°C° 0.1 mm 2 mps 708 mmHg 87%
    21:00 +27°C° 0.3 mm 2 mps 708 mmHg 87%
    22:00 +27°C° 0.3 mm 2 mps 708 mmHg 87%
    23:00 +27°C° 0.3 mm 2 mps 708 mmHg 88%

    26 August, Saturday

    Time Temperature Precipitation Wind Pressure Humidity
    00:00 +27°C° 0.5 mm 3 mps 708 mmHg 88%
    01:00 +27°C° 0.5 mm 3 mps 708 mmHg 88%
    02:00 +26°C° 0.5 mm 3 mps 707 mmHg 89%
    03:00 +26°C° 0 mm 3 mps 707 mmHg 90%
    04:00 +26°C° 0 mm 3 mps 707 mmHg 90%
    05:00 +26°C° 0 mm 3 mps 707 mmHg 91%
    06:00 +26°C° 0 mm 3 mps 708 mmHg 89%
    07:00 +27°C° 0 mm 4 mps 709 mmHg 87%
    08:00 +28°C° 0 mm 4 mps 709 mmHg 85%
    09:00 +29°C° 0.6 mm 4 mps 709 mmHg 81%
    10:00 +30°C° 0.6 mm 4 mps 709 mmHg 77%
    11:00 +32°C° 0.6 mm 4 mps 709 mmHg 73%
    12:00 +32°C° 1.3 mm 4 mps 709 mmHg 72%
    13:00 +33°C° 1.3 mm 4 mps 708 mmHg 71%
    14:00 +33°C° 1.3 mm 3 mps 708 mmHg 70%
    15:00 +31°C° 2 mm 3 mps 708 mmHg 76%
    16:00 +29°C° 2 mm 3 mps 707 mmHg 81%
    17:00 +28°C° 2 mm 3 mps 707 mmHg 86%
    18:00 +28°C° 0.3 mm 2 mps 708 mmHg 87%
    19:00 +27°C° 0.3 mm 2 mps 708 mmHg 88%
    20:00 +27°C° 0.3 mm 1 mps 708 mmHg 89%
    21:00 +27°C° 0.1 mm 1 mps 708 mmHg 90%
    22:00 +27°C° 0.1 mm 1 mps 708 mmHg 90%
    23:00 +26°C° 0.1 mm 1 mps 708 mmHg 90%

    27 August, Sunday

    Time Temperature Precipitation Wind Pressure Humidity
    00:00 +26°C° 0.2 mm 1 mps 708 mmHg 91%
    01:00 +26°C° 0.2 mm 2 mps 707 mmHg 91%
    02:00 +26°C° 0.2 mm 2 mps 707 mmHg 91%
    03:00 +26°C° 0.2 mm 2 mps 707 mmHg 92%
    04:00 +26°C° 0.2 mm 2 mps 707 mmHg 92%
    05:00 +26°C° 0.2 mm 2 mps 707 mmHg 93%
    06:00 +26°C° 0.4 mm 2 mps 708 mmHg 91%
    07:00 +27°C° 0.4 mm 2 mps 708 mmHg 89%
    08:00 +27°C° 0.4 mm 2 mps 709 mmHg 87%
    09:00 +28°C° 1.3 mm 2 mps 709 mmHg 83%
    10:00 +29°C° 1.3 mm 2 mps 709 mmHg 79%
    11:00 +30°C° 1.3 mm 2 mps 708 mmHg 75%
    12:00 +30°C° 0.8 mm 2 mps 708 mmHg 74%
    13:00 +31°C° 0.8 mm 2 mps 707 mmHg 72%
    14:00 +31°C° 0.8 mm 2 mps 707 mmHg 71%
    15:00 +30°C° 1.7 mm 2 mps 707 mmHg 76%
    16:00 +29°C° 1.7 mm 2 mps 707 mmHg 82%
    17:00 +28°C° 1.7 mm 2 mps 707 mmHg 87%
    18:00 +28°C° 0.6 mm 2 mps 707 mmHg 89%
    19:00 +27°C° 0.6 mm 2 mps 707 mmHg 91%
    20:00 +27°C° 0.6 mm 2 mps 707 mmHg 92%
    21:00 +26°C° 0.2 mm 2 mps 707 mmHg 92%
    22:00 +26°C° 0.2 mm 1 mps 707 mmHg 93%
    23:00 +26°C° 0.2 mm 1 mps 707 mmHg 93%
    Show more